[[{"header":{"parameterUnit":"m.s-1","parameterCategory":1,"la1":30.2991,"la2":30.254,"lo1":-89.0895,"lo2":-89.0444,"dy":0.0017,"dx":0.0017,"nx":28,"ny":28,"refTime":"2024-11-30T03:00:00:Z","depth":0,"parameterNumber":2,"parameterNumberName":"U-component_of_WINDS"},"data":[0,0,0,0,0,0,0,0,0,0,0,0,0,0,0,0,0,0,0,0,0,0,0,0,0,0,0,0,0,0,0,0,0,0,0,0,0,0,0,0,0,0,0,0,0,0,0,0,0,0,0,0,0,0,0,0,0,0,-2.4366,-2.4366,0,-2.443,-2.4431,-2.4432,-2.4382,-2.438,-2.4378,-2.4376,-2.4443,-2.4446,-2.445,0,0,0,0,0,0,0,0,0,0,0,0,0,-2.4199,-2.4203,-2.4366,-2.4366,-2.4367,-2.443,-2.4431,-2.4432,-2.4383,-2.438,-2.4378,-2.4375,-2.4441,-2.4446,-2.445,0,0,0,0,0,0,0,0,0,0,0,0,0,-2.4269,-2.4204,-2.4365,-2.435,-2.435,-2.443,-2.4431,-2.4432,-2.4383,-2.438,-2.4377,-2.4374,-2.444,-2.4445,-2.4451,-2.455,0,0,-2.4468,-2.4471,0,0,0,0,0,0,0,0,-2.4265,-2.4275,-2.4352,-2.4351,-2.4351,-2.4395,-2.4397,-2.4472,-2.4384,-2.4371,-2.4376,-2.4372,-2.4429,-2.4436,-2.4455,-2.4553,-2.4556,-2.4469,-2.4472,-2.4474,-2.4476,0,0,0,0,0,0,0,-2.426,-2.4272,-2.4391,-2.4353,-2.4352,-2.434,-2.4346,-2.4411,-2.4417,-2.4371,-2.4368,-2.4376,-2.4428,-2.4449,-2.4456,-2.4557,-2.4468,-2.4473,-2.4477,-2.4479,-2.4738,-2.4741,0,0,0,0,0,0,-2.4257,-2.4268,-2.4389,-2.4393,-2.4299,-2.4346,-2.4353,-2.4384,-2.4416,-2.4418,-2.4379,-2.4374,-2.4441,-2.4449,-2.4458,-2.4575,-2.4474,-2.448,-2.4483,-2.4734,-2.4739,-2.4742,0,0,0,0,0,0,-2.4253,-2.4268,-2.4386,-2.433,-2.4344,-2.4352,-2.4387,-2.4387,-2.4408,-2.4422,-2.4423,-2.4399,-2.4439,-2.445,-2.4527,-2.4577,-2.4482,-2.4487,-2.473,-2.4736,-2.474,-2.4811,0,0,0,0,0,0,-2.4249,-2.4267,-2.4305,-2.4331,-2.4347,-2.4455,-2.4391,-2.4391,-2.4418,-2.4412,-2.4441,-2.4443,-2.4438,-2.4519,-2.4533,-2.4583,-2.4492,-2.4726,-2.4733,-2.4739,-2.4804,-2.4818,-2.483,0,0,0,0,0,-2.4243,-2.4323,-2.4307,-2.4322,-2.4395,-2.4458,-2.4467,-2.4459,-2.4422,-2.446,-2.4469,-2.4442,-2.4569,-2.4527,-2.4542,-2.4595,-2.4723,-2.4731,-2.4738,-2.4799,-2.4815,-2.4829,0,0,0,0,0,0,-2.4303,-2.4326,-2.4309,-2.4399,-2.4427,-2.4449,-2.4497,-2.4477,-2.4516,-2.4509,-2.4497,-2.4504,-2.4585,-2.4597,-2.455,-2.4692,-2.464,-2.4651,-2.4681,-2.4697,-2.4709,-2.4705,-2.4496,0,0,0,0,0,-2.4327,-2.4376,-2.4393,-2.4471,-2.4486,-2.4489,-2.4517,-2.4508,-2.4536,-2.4547,-2.4562,-2.459,-2.4636,-2.4667,-2.471,-2.4806,-2.4811,-2.4849,-2.4862,-2.4872,-2.4882,-2.4933,-2.495,-2.4768,-2.4768,-2.4768,0,0,-2.4376,-2.4395,-2.4427,-2.4484,-2.4504,-2.4555,-2.45,-2.4556,-2.4594,-2.4556,-2.4629,-2.4641,-2.4672,-2.4758,-2.4797,-2.4771,-2.4934,-2.4882,-2.4891,-2.4895,-2.4943,-2.496,-2.4975,-2.4773,-2.4772,-2.4772,0,0,-2.4493,-2.4512,-2.4579,-2.46,-2.4631,-2.4633,-2.4649,-2.4674,-2.468,-2.4753,-2.4725,-2.477,-2.485,-2.4873,-2.4895,-2.5018,-2.4995,-2.5033,-2.51,-2.5149,-2.5163,-2.5176,-2.522,-2.5236,-2.5043,-2.5043,-2.5043,0,-2.4551,-2.4627,-2.4616,-2.4674,-2.47,-2.4667,-2.4734,-2.4755,-2.48,-2.4818,-2.4788,-2.4887,-2.4906,-2.4996,-2.5026,-2.5046,-2.5063,-2.503,-2.5162,-2.5175,-2.5186,-2.5228,-2.5244,-2.5047,-2.5047,-2.5046,-2.5046,0,-2.4696,-2.4749,-2.4799,-2.4842,-2.4873,-2.4936,-2.4934,-2.4967,-2.4955,-2.4959,-2.5034,-2.5054,-2.5101,-2.5122,-2.5111,-2.5211,-2.5194,-2.5164,-2.5111,-2.5208,-2.5247,-2.5263,-2.5053,-2.5052,-2.5051,-2.5049,0,0,-2.4854,-2.4888,-2.4907,-2.4925,-2.4957,-2.4997,-2.5058,-2.5103,-2.5131,-2.5162,-2.5213,-2.528,-2.5252,-2.5277,-2.5269,-2.5312,-2.5408,-2.5276,-2.5277,-2.53,-2.5518,-2.5541,-2.556,-2.5392,-2.5395,-2.5398,-2.5516,0,-2.4972,-2.5077,-2.5068,-2.5168,-2.5217,-2.5186,-2.5238,-2.5263,-2.5268,-2.531,-2.5316,-2.5364,-2.5323,-2.5338,-2.5379,-2.5387,-2.5452,-2.5379,-2.5439,-2.5441,-2.5433,-2.558,-2.5605,-2.5715,-2.5531,-2.5533,-2.5535,0,-2.5124,-2.516,-2.5264,-2.5287,-2.5307,-2.5355,-2.5394,-2.5435,-2.5462,-2.5462,-2.549,-2.5473,-2.5534,-2.548,-2.5563,-2.5514,-2.5538,-2.5545,-2.5549,-2.5555,-2.5495,-2.559,-2.575,-2.5767,-2.5559,-2.5557,-2.5556,0,-2.5228,-2.5302,-2.5374,-2.5391,-2.5419,-2.5453,-2.5467,-2.549,-2.5518,-2.5552,-2.557,-2.5612,-2.5634,-2.5667,-2.5662,-2.5623,-2.5746,-2.5692,-2.5749,-2.5749,-2.5777,-2.5775,-2.5943,-2.5792,-2.5792,-2.5791,-2.5791,0,-2.5361,-2.5427,-2.5421,-2.5466,-2.5537,-2.5526,-2.5597,-2.5606,-2.5628,-2.5673,-2.5648,-2.5691,-2.5682,-2.5725,-2.5721,-2.579,-2.5801,-2.5803,-2.5801,-2.5805,-2.5805,-2.5821,-2.5814,-2.5796,-2.5795,-2.5794,-2.5793,0,-2.549,-2.5489,-2.5566,-2.5586,-2.5592,-2.5644,-2.5661,-2.5703,-2.5705,-2.5763,-2.5776,-2.578,-2.5829,-2.5827,-2.5883,-2.588,-2.5965,-2.5954,-2.5956,-2.5954,-2.6011,-2.6005,-2.6196,-2.622,-2.6052,-2.6054,-2.6055,0,-2.5576,-2.5625,-2.565,-2.5678,-2.5693,-2.574,-2.5767,-2.5757,-2.5786,-2.582,-2.5857,-2.5904,-2.594,-2.602,-2.6028,-2.607,-2.606,-2.6124,-2.6067,-2.6069,-2.6061,-2.6059,-2.6063,-2.6135,-2.6137,-2.6139,-2.614,0,-2.5727,-2.5723,-2.5764,-2.5804,-2.5836,-2.5868,-2.5896,-2.5921,-2.5913,-2.5948,-2.5997,-2.6025,-2.6081,-2.6128,-2.6168,-2.6181,-2.616,-2.6158,-2.6173,-2.6178,-2.6177,-2.6178,-2.5987,-2.6154,-2.6152,-2.6151,-2.6151,-2.615,-2.5837,-2.5878,-2.5902,-2.5947,-2.5967,-2.5994,-2.6034,-2.6041,-2.6082,-2.6126,-2.6118,-2.6173,-2.6197,-2.6249,-2.6266,-2.6309,-2.6286,-2.6308,-2.6314,-2.632,-2.6326,-2.617,-2.6316,-2.6316,-2.6315,-2.6315,-2.6315,0,-2.5986,-2.6,-2.6041,-2.6081,-2.6117,-2.6092,-2.6122,-2.6153,-2.6202,-2.6226,-2.6262,-2.6319,-2.6363,-2.6374,-2.6417,-2.6449,-2.644,-2.646,-2.6458,-2.6461,-2.6344,-2.6327,-2.6467,-2.6467,-2.6467,-2.6467,-2.6467,-2.6467,-2.6069,-2.6138,-2.6137,-2.6216,-2.6228,-2.6282,-2.6301,-2.6325,-2.6345,-2.6408,-2.6445,-2.6451,-2.647,-2.6514,-2.6553,-2.6555,-2.6572,-2.6596,-2.6595,-2.6485,-2.647,-2.6455,-2.6439,-2.66,-2.66,-2.6708,-2.6709,-2.671]},{"header":{"parameterUnit":"m.s-1","parameterCategory":1,"la1":30.2991,"la2":30.254,"lo1":-89.0895,"lo2":-89.0444,"dy":0.0017,"dx":0.0017,"nx":28,"ny":28,"refTime":"2024-11-30T03:00:00:Z","depth":0,"parameterNumber":3,"parameterNumberName":"V-component_of_WINDS"},"data":[0,0,0,0,0,0,0,0,0,0,0,0,0,0,0,0,0,0,0,0,0,0,0,0,0,0,0,0,0,0,0,0,0,0,0,0,0,0,0,0,0,0,0,0,0,0,0,0,0,0,0,0,0,0,0,0,0,0,-1.3169,-1.317,0,-1.327,-1.3271,-1.3272,-1.3315,-1.3315,-1.3315,-1.3314,-1.3417,-1.342,-1.3423,0,0,0,0,0,0,0,0,0,0,0,0,0,-1.3014,-1.3017,-1.3169,-1.3171,-1.3172,-1.3269,-1.3271,-1.3272,-1.3315,-1.3315,-1.3315,-1.3314,-1.3416,-1.342,-1.3423,0,0,0,0,0,0,0,0,0,0,0,0,0,-1.3094,-1.3017,-1.3169,-1.3205,-1.3209,-1.3269,-1.3271,-1.3273,-1.3315,-1.3315,-1.3315,-1.3314,-1.3415,-1.342,-1.3424,-1.3456,0,0,-1.3437,-1.3439,0,0,0,0,0,0,0,0,-1.309,-1.31,-1.3198,-1.3203,-1.3207,-1.328,-1.3254,-1.3334,-1.3315,-1.3275,-1.3314,-1.3314,-1.3372,-1.338,-1.3399,-1.3461,-1.3465,-1.3438,-1.344,-1.3442,-1.3443,0,0,0,0,0,0,0,-1.3084,-1.3096,-1.3209,-1.32,-1.3205,-1.3216,-1.3227,-1.3269,-1.3324,-1.3278,-1.3282,-1.3293,-1.3374,-1.3395,-1.3402,-1.3467,-1.3437,-1.3441,-1.3444,-1.3446,-1.3558,-1.3559,0,0,0,0,0,0,-1.3073,-1.3091,-1.3206,-1.3212,-1.3147,-1.3219,-1.3231,-1.3257,-1.3323,-1.3333,-1.3293,-1.3295,-1.3387,-1.3397,-1.3406,-1.3447,-1.3442,-1.3446,-1.3449,-1.3558,-1.3559,-1.3559,0,0,0,0,0,0,-1.3069,-1.3083,-1.3202,-1.3153,-1.3169,-1.3222,-1.325,-1.3259,-1.3279,-1.3334,-1.3344,-1.3304,-1.3388,-1.3399,-1.3443,-1.3451,-1.3448,-1.3452,-1.3558,-1.3558,-1.3559,-1.353,0,0,0,0,0,0,-1.3065,-1.3081,-1.3094,-1.3153,-1.3171,-1.3237,-1.325,-1.3261,-1.3287,-1.329,-1.3347,-1.3357,-1.3388,-1.3436,-1.3447,-1.3457,-1.3455,-1.3557,-1.3558,-1.3559,-1.353,-1.353,-1.3529,0,0,0,0,0,-1.3059,-1.3082,-1.3095,-1.3108,-1.3188,-1.3238,-1.3248,-1.3284,-1.3287,-1.3301,-1.3336,-1.3355,-1.3448,-1.344,-1.3453,-1.3464,-1.3557,-1.3558,-1.3559,-1.3531,-1.353,-1.3529,0,0,0,0,0,0,-1.3024,-1.3091,-1.3105,-1.3148,-1.3187,-1.3245,-1.3263,-1.3282,-1.3321,-1.3322,-1.3365,-1.3378,-1.3417,-1.3445,-1.3435,-1.3498,-1.3504,-1.3508,-1.3479,-1.3478,-1.3477,-1.347,-1.3459,0,0,0,0,0,-1.3021,-1.3056,-1.3112,-1.3145,-1.3163,-1.3209,-1.3233,-1.3257,-1.3299,-1.3315,-1.3354,-1.3394,-1.3432,-1.3457,-1.3495,-1.3534,-1.3547,-1.3549,-1.3548,-1.3547,-1.3549,-1.3572,-1.3573,-1.3562,-1.3562,-1.3562,0,0,-1.3016,-1.3057,-1.3076,-1.3139,-1.3172,-1.3206,-1.3223,-1.326,-1.3286,-1.3321,-1.3364,-1.3393,-1.3441,-1.3482,-1.3502,-1.3507,-1.3555,-1.3548,-1.3547,-1.355,-1.3573,-1.3573,-1.3574,-1.3562,-1.3562,-1.3562,0,0,-1.3024,-1.3058,-1.3089,-1.3121,-1.3171,-1.3201,-1.3208,-1.3263,-1.3284,-1.3328,-1.3355,-1.3386,-1.3452,-1.3484,-1.3509,-1.3528,-1.3547,-1.3539,-1.3535,-1.3556,-1.3557,-1.3558,-1.3564,-1.3566,-1.3542,-1.3541,-1.3541,0,-1.3011,-1.3065,-1.3102,-1.3137,-1.3163,-1.3196,-1.3227,-1.3256,-1.3316,-1.3333,-1.3337,-1.3419,-1.3454,-1.3503,-1.3507,-1.3526,-1.3535,-1.3533,-1.3554,-1.3555,-1.3557,-1.3563,-1.3565,-1.354,-1.354,-1.354,-1.3541,0,-1.3046,-1.3083,-1.3101,-1.3157,-1.3186,-1.3218,-1.326,-1.3284,-1.3306,-1.3335,-1.3379,-1.3421,-1.3468,-1.3482,-1.3503,-1.3533,-1.3535,-1.3545,-1.3552,-1.3556,-1.3563,-1.3565,-1.3538,-1.3539,-1.3539,-1.354,0,0,-1.3036,-1.3111,-1.3118,-1.3143,-1.3199,-1.3228,-1.3262,-1.3307,-1.3327,-1.3367,-1.3396,-1.3449,-1.346,-1.3488,-1.3513,-1.3532,-1.3543,-1.3541,-1.3542,-1.3539,-1.3579,-1.357,-1.3573,-1.3556,-1.3557,-1.3557,-1.3575,0,-1.3052,-1.3113,-1.3147,-1.3194,-1.3228,-1.3259,-1.3288,-1.3326,-1.3354,-1.3387,-1.3418,-1.3456,-1.3467,-1.3484,-1.3503,-1.3538,-1.3552,-1.3537,-1.3583,-1.3584,-1.3571,-1.3576,-1.3568,-1.3582,-1.3578,-1.3578,-1.3579,0,-1.3078,-1.3117,-1.3167,-1.3219,-1.3234,-1.326,-1.3304,-1.3335,-1.3378,-1.3397,-1.3428,-1.3452,-1.3489,-1.3492,-1.3542,-1.3531,-1.3552,-1.3572,-1.3573,-1.3579,-1.3582,-1.3582,-1.3588,-1.359,-1.3583,-1.3583,-1.3583,0,-1.3065,-1.313,-1.3168,-1.3189,-1.325,-1.3267,-1.3293,-1.3336,-1.3361,-1.3399,-1.3416,-1.3458,-1.3481,-1.3513,-1.3548,-1.3548,-1.3595,-1.3601,-1.3612,-1.3611,-1.3621,-1.362,-1.363,-1.3634,-1.3634,-1.3634,-1.3634,0,-1.3079,-1.3109,-1.3163,-1.3186,-1.322,-1.3258,-1.3291,-1.3319,-1.3357,-1.3386,-1.3416,-1.3443,-1.3488,-1.352,-1.3548,-1.3585,-1.3595,-1.3612,-1.3619,-1.3609,-1.3607,-1.3624,-1.3624,-1.3634,-1.3634,-1.3634,-1.3634,0,-1.3071,-1.3108,-1.3152,-1.3206,-1.322,-1.3242,-1.3288,-1.3312,-1.3342,-1.3378,-1.3389,-1.3436,-1.3475,-1.3513,-1.3567,-1.3585,-1.3622,-1.3632,-1.3608,-1.3612,-1.362,-1.3619,-1.3641,-1.3646,-1.3646,-1.3646,-1.3646,0,-1.3077,-1.31,-1.3157,-1.3178,-1.3204,-1.3238,-1.3264,-1.3302,-1.3327,-1.3377,-1.3395,-1.3436,-1.3472,-1.3534,-1.3572,-1.3613,-1.3623,-1.3628,-1.363,-1.3619,-1.3623,-1.3622,-1.3624,-1.3628,-1.3627,-1.3627,-1.3627,0,-1.3084,-1.3101,-1.3137,-1.3178,-1.3208,-1.3242,-1.3278,-1.3294,-1.3339,-1.3366,-1.3407,-1.3434,-1.3488,-1.3529,-1.3574,-1.3601,-1.3621,-1.3626,-1.3631,-1.3621,-1.3607,-1.3615,-1.3605,-1.3626,-1.3626,-1.3626,-1.3626,-1.3626,-1.3084,-1.3106,-1.3148,-1.3186,-1.3217,-1.3249,-1.3274,-1.3306,-1.3341,-1.3387,-1.3408,-1.3449,-1.349,-1.3553,-1.3579,-1.3612,-1.3617,-1.3623,-1.3625,-1.3626,-1.3624,-1.3601,-1.362,-1.362,-1.362,-1.362,-1.362,0,-1.3092,-1.3121,-1.3156,-1.3204,-1.3234,-1.325,-1.329,-1.3314,-1.335,-1.3386,-1.342,-1.3467,-1.3506,-1.3547,-1.3589,-1.3607,-1.3618,-1.3617,-1.3616,-1.3622,-1.3617,-1.3609,-1.3608,-1.3608,-1.3608,-1.3608,-1.3608,-1.3608,-1.31,-1.3138,-1.316,-1.3213,-1.3241,-1.3281,-1.3303,-1.3333,-1.3362,-1.3412,-1.3445,-1.3471,-1.351,-1.3555,-1.3592,-1.3603,-1.3617,-1.3613,-1.3627,-1.3622,-1.3623,-1.3623,-1.3616,-1.3616,-1.3616,-1.3629,-1.363,-1.363]}]]